Location: Eastchurch
(51.4000°N, 0.8667°E)
Time: 23:51:01
(UTC+00:00)

Cosmos 2322 Rocket - Pass Details

Date: 19 January 2026
Orbit: 832 x 849 km, 71.0° (Epoch: 17 February)

Event Time Altitude Azimuth Distance (km) Brightness Sun altitude
Rises 17:54:26 0° 324° (NW) 3,417 5.6 -13.7°
Reaches altitude 10° 17:58:37 10° 353° (N) 2,476 4.6 -14.3°
Maximum altitude 18:00:56 12° 18° (NNE) 2,303 4.2 -14.7°
Enters shadow 18:02:16 12° 32° (NNE) 2,360 4.1 -14.9°
